GW2622 Weather Reports


Display with metric or nautical units.
time (UTC)temp
F
wind
direction
speed
MPH
gust
MPH
rain 1hr
in
rain 24hr
in
rain mn
in
humidity
%
barometer
mb
20260904124950 77 237 2.0 3.0 0.00 0.00 0.00 87 1013.0
20260904124446 77 221 2.0 2.0 0.00 0.00 0.00 87 1013.1
20260904123942 77 234 2.0 3.0 0.00 0.00 0.00 87 1012.8
20260904123436 77 242 2.0 2.0 0.00 0.00 0.00 87 1013.0
20260904122931 76 257 1.0 2.0 0.00 0.00 0.00 87 1012.7
20260904122426 76 274 1.0 2.0 0.00 0.00 0.00 87 1012.7
20260904121920 75 278 1.0 1.0 0.00 0.00 0.00 88 1012.9
20260904121417 75 255 2.0 2.0 0.00 0.00 0.00 88 1012.9
20260904120913 75 267 2.0 2.0 0.00 0.00 0.00 89 1012.8
20260904120409 74 264 1.0 2.0 0.00 0.00 0.00 89 1012.8
20260904115904 74 270 0.0 1.0 0.00 0.00 0.00 90 1012.9
20260904115359 74 265 1.0 2.0 0.00 0.00 0.00 90 1012.7
20260904114853 74 238 2.0 2.0 0.00 0.00 0.00 90 1012.8
20260904114348 74 244 2.0 2.0 0.00 0.00 0.00 89 1012.5
20260904113843 74 247 2.0 2.0 0.00 0.00 0.00 89 1012.5
20260904113342 74 228 3.0 3.0 0.00 0.00 0.00 90 1012.4
20260904112837 74 235 2.0 2.0 0.00 0.00 0.00 89 1012.5
20260904112333 74 235 2.0 3.0 0.00 0.00 0.00 89 1012.4
20260904111828 74 230 2.0 3.0 0.00 0.00 0.00 89 1012.5
20260904111324 74 256 1.0 3.0 0.00 0.00 0.00 89 1012.3
20260904110820 74 250 1.0 3.0 0.00 0.00 0.00 89 1012.2
20260904110319 74 257 1.0 2.0 0.00 0.00 0.00 89 1012.2
20260904105813 74 248 1.0 3.0 0.00 0.00 0.00 89 1012.2
20260904105308 74 244 2.0 3.0 0.00 0.00 0.00 89 1012.2
20260904104803 74 237 2.0 3.0 0.00 0.00 0.00 89 1012.3
20260904104259 74 242 2.0 3.0 0.00 0.00 0.00 89 1012.1
20260904103756 74 226 2.0 3.0 0.00 0.00 0.00 89 1012.1
20260904103255 74 234 2.0 3.0 0.00 0.00 0.00 89 1012.1
20260904102751 74 244 1.0 2.0 0.00 0.00 0.00 89 1012.1
20260904102246 74 245 1.0 2.0 0.00 0.00 0.00 89 1012.2
20260904101742 74 246 1.0 1.0 0.00 0.00 0.00 90 1012.0
20260904101238 74 246 0.0 0.0 0.00 0.00 0.00 90 1012.0
20260904100734 74 246 0.0 1.0 0.00 0.00 0.00 89 1012.0
20260904100230 75 245 1.0 2.0 0.00 0.00 0.00 89 1012.1
20260904095729 75 245 1.0 2.0 0.00 0.00 0.00 89 1012.0
20260904095224 75 245 2.0 2.0 0.00 0.00 0.00 89 1011.9
20260904094719 75 246 2.0 2.0 0.00 0.00 0.00 88 1012.0
20260904094219 75 249 1.0 2.0 0.00 0.00 0.00 88 1011.9
20260904093716 75 237 2.0 2.0 0.00 0.00 0.00 88 1011.8
20260904093215 75 228 3.0 3.0 0.00 0.00 0.00 88 1011.8
20260904092711 75 231 3.0 5.0 0.00 0.00 0.00 88 1011.7
20260904092207 75 234 2.0 3.0 0.00 0.00 0.00 88 1011.7
20260904091703 75 243 2.0 3.0 0.00 0.00 0.00 88 1011.7
20260904091158 75 230 3.0 3.0 0.00 0.00 0.00 88 1011.6
20260904090653 76 235 2.0 2.0 0.00 0.00 0.00 87 1011.4
20260904090149 76 227 2.0 2.0 0.00 0.00 0.00 87 1011.5
20260904085644 76 222 1.0 3.0 0.00 0.00 0.00 87 1011.5
20260904085143 75 207 2.0 3.0 0.00 0.00 0.00 87 1011.5
20260904084638 75 245 2.0 3.0 0.00 0.00 0.00 88 1011.4
20260904084135 75 213 2.0 3.0 0.00 0.00 0.00 88 1011.4
20260904083631 76 207 2.0 2.0 0.00 0.00 0.00 88 1011.6
20260904083127 76 227 2.0 2.0 0.00 0.00 0.00 87 1011.5
20260904082621 76 224 2.0 2.0 0.00 0.00 0.00 87 1011.6
20260904082117 76 219 2.0 3.0 0.00 0.00 0.00 87 1011.5
20260904081612 76 231 2.0 3.0 0.00 0.00 0.00 86 1011.4
20260904081107 76 199 3.0 3.0 0.00 0.00 0.00 86 1011.4
20260904080603 76 241 1.0 2.0 0.00 0.00 0.00 87 1011.5
20260904080059 76 246 2.0 2.0 0.00 0.00 0.00 87 1011.3
20260904075556 76 248 1.0 2.0 0.00 0.00 0.00 86 1011.5
20260904075055 77 250 1.0 3.0 0.00 0.00 0.00 85 1011.5
20260904074555 77 208 2.0 3.0 0.00 0.00 0.00 85 1011.6
20260904074050 77 181 3.0 3.0 0.00 0.00 0.00 84 1011.6
20260904073544 77 196 2.0 3.0 0.00 0.00 0.00 84 1011.6
20260904073041 77 252 2.0 3.0 0.00 0.00 0.00 84 1011.6
20260904072536 77 156 3.0 5.0 0.00 0.00 0.00 84 1011.5
20260904072031 77 178 2.0 3.0 0.00 0.00 0.00 84 1011.6
20260904071527 77 225 2.0 2.0 0.00 0.00 0.00 85 1011.7
20260904071022 77 241 1.0 2.0 0.00 0.00 0.00 85 1011.6
20260904070520 78 171 2.0 3.0 0.00 0.00 0.00 84 1011.6
20260904070015 78 186 2.0 3.0 0.00 0.00 0.00 83 1011.6
20260904065510 78 186 3.0 5.0 0.00 0.00 0.00 83 1011.8
20260904065007 77 161 3.0 3.0 0.00 0.00 0.00 84 1011.7
20260904064503 77 187 3.0 3.0 0.00 0.00 0.00 85 1011.6
20260904063957 77 188 3.0 3.0 0.00 0.00 0.00 85 1011.9
20260904063453 77 198 3.0 3.0 0.00 0.00 0.00 85 1011.8
20260904062948 77 196 2.0 3.0 0.00 0.00 0.00 85 1011.8
20260904062444 77 186 3.0 3.0 0.00 0.00 0.00 85 1012.0
20260904061940 77 204 3.0 3.0 0.00 0.00 0.00 85 1011.8
20260904061436 77 177 3.0 5.0 0.00 0.00 0.00 85 1011.8
20260904060932 77 193 2.0 3.0 0.00 0.00 0.00 85 1011.9
20260904060427 77 192 2.0 5.0 0.00 0.00 0.00 85 1011.8
20260904055923 77 189 3.0 5.0 0.00 0.00 0.00 85 1011.8
20260904055418 77 197 3.0 3.0 0.00 0.00 0.00 85 1012.0
20260904054914 77 177 3.0 3.0 0.00 0.00 0.00 85 1011.8
20260904054409 77 195 2.0 5.0 0.00 0.00 0.00 86 1011.8
20260904053900 77 181 3.0 3.0 0.00 0.00 0.00 86 1012.0
20260904053358 77 176 3.0 3.0 0.00 0.00 0.00 85 1012.0
20260904052854 77 175 3.0 5.0 0.00 0.00 0.00 85 1012.0
20260904052350 78 174 4.0 6.0 0.00 0.00 0.00 85 1012.0
20260904051846 78 169 3.0 3.0 0.00 0.00 0.00 84 1011.8
20260904051342 78 191 3.0 3.0 0.00 0.00 0.00 84 1011.9
20260904050836 78 202 2.0 3.0 0.00 0.00 0.00 84 1011.8
20260904050333 78 192 2.0 2.0 0.00 0.00 0.00 84 1011.9
20260904045828 78 178 3.0 3.0 0.00 0.00 0.00 84 1011.9
20260904045323 78 184 3.0 3.0 0.00 0.00 0.00 84 1011.9
20260904044822 78 219 2.0 3.0 0.00 0.00 0.00 83 1012.0
20260904044319 78 196 2.0 5.0 0.00 0.00 0.00 83 1011.9
20260904043815 79 197 2.0 3.0 0.00 0.00 0.00 83 1012.0
20260904043311 79 244 1.0 2.0 0.00 0.00 0.00 83 1011.8
20260904042806 79 245 1.0 2.0 0.00 0.00 0.00 83 1011.9
20260904042306 79 230 2.0 3.0 0.00 0.00 0.00 82 1011.8
20260904041802 79 185 2.0 3.0 0.00 0.00 0.00 82 1012.0
20260904041259 79 204 2.0 3.0 0.00 0.00 0.00 82 1011.9
20260904040753 79 239 2.0 3.0 0.00 0.00 0.00 83 1011.9
20260904040249 79 220 2.0 2.0 0.00 0.00 0.00 83 1011.9
20260904035745 79 191 2.0 2.0 0.00 0.00 0.00 83 1011.8
20260904035241 79 208 2.0 3.0 0.00 0.00 0.00 83 1011.9
20260904034739 80 197 2.0 2.0 0.00 0.00 0.00 82 1011.9
20260904034236 80 174 3.0 3.0 0.00 0.00 0.00 82 1011.8
20260904033731 80 201 2.0 2.0 0.00 0.00 0.00 81 1012.0
20260904033228 80 203 2.0 2.0 0.00 0.00 0.00 81 1012.0
20260904032723 80 241 1.0 2.0 0.00 0.00 0.00 80 1011.7
20260904032222 80 187 2.0 2.0 0.00 0.00 0.00 80 1011.7
20260904031717 80 205 2.0 2.0 0.00 0.00 0.00 80 1011.8
20260904031213 80 233 2.0 2.0 0.00 0.00 0.00 80 1011.8
20260904030708 81 224 2.0 2.0 0.00 0.00 0.00 80 1011.8
20260904030203 81 211 2.0 2.0 0.00 0.00 0.00 78 1011.8
20260904025700 81 218 2.0 3.0 0.00 0.00 0.00 78 1011.7
20260904025154 81 256 1.0 3.0 0.00 0.00 0.00 78 1011.7
20260904024650 82 247 2.0 3.0 0.00 0.00 0.00 77 1011.7
20260904024145 82 191 3.0 3.0 0.00 0.00 0.00 76 1011.7
20260904023641 82 183 3.0 5.0 0.00 0.00 0.00 75 1011.5
20260904023131 83 226 2.0 3.0 0.00 0.00 0.00 75 1011.6
20260904022631 83 221 2.0 3.0 0.00 0.00 0.00 74 1011.6
20260904022128 83 215 1.0 3.0 0.00 0.00 0.00 74 1011.6
20260904021624 83 229 2.0 5.0 0.00 0.00 0.00 74 1011.4
20260904021118 83 225 2.0 3.0 0.00 0.00 0.00 74 1011.6
20260904020614 84 214 3.0 3.0 0.00 0.00 0.00 73 1011.5
20260904020108 84 182 3.0 5.0 0.00 0.00 0.00 73 1011.3
20260904015603 84 180 3.0 3.0 0.00 0.00 0.00 73 1011.4
20260904015101 84 189 3.0 3.0 0.00 0.00 0.00 73 1011.1
20260904014555 84 205 3.0 5.0 0.00 0.00 0.00 72 1011.1
20260904014051 85 223 3.0 6.0 0.00 0.00 0.00 72 1011.3
20260904013548 85 200 3.0 5.0 0.00 0.00 0.00 71 1011.0
20260904013044 85 180 4.0 6.0 0.00 0.00 0.00 71 1011.0
20260904012538 85 210 3.0 5.0 0.00 0.00 0.00 72 1011.2
20260904012037 85 185 2.0 5.0 0.00 0.00 0.00 73 1011.3
20260904011532 85 210 2.0 3.0 0.00 0.00 0.00 73 1011.1
20260904011027 85 181 3.0 3.0 0.00 0.00 0.00 73 1011.0
20260904010524 85 212 2.0 3.0 0.00 0.00 0.00 74 1010.8
20260904010019 86 173 3.0 3.0 0.00 0.00 0.00 73 1010.8
20260904005514 86 184 3.0 3.0 0.00 0.00 0.00 73 1011.0
20260904005009 86 236 2.0 2.0 0.00 0.00 0.00 73 1010.9
20260904004505 86 219 2.0 3.0 0.00 0.00 0.00 72 1010.8
20260904004005 86 175 3.0 3.0 0.00 0.00 0.00 72 1011.0
20260904003501 87 216 2.0 2.0 0.00 0.00 0.00 72 1010.7
20260904002956 87 183 3.0 3.0 0.00 0.00 0.00 71 1010.8
20260904002452 87 211 2.0 2.0 0.00 0.00 0.00 70 1010.7
20260904001950 88 211 2.0 2.0 0.00 0.00 0.00 70 1010.8
20260904001447 88 200 2.0 2.0 0.00 0.00 0.00 68 1010.8
20260904000941 89 272 1.0 3.0 0.00 0.00 0.00 68 1010.8
20260904000440 89 180 3.0 3.0 0.00 0.00 0.00 66 1010.8
20260903235936 90 202 3.0 5.0 0.00 0.00 0.00 65 1010.8
20260903235432 90 187 3.0 5.0 0.00 0.00 0.00 64 1010.7
20260903234926 91 181 3.0 7.0 0.00 0.00 0.00 63 1010.7
20260903234422 91 177 4.0 6.0 0.00 0.00 0.00 63 1010.7
20260903233918 91 199 4.0 7.0 0.00 0.00 0.00 63 1010.7
20260903233413 92 222 2.0 6.0 0.00 0.00 0.00 62 1010.6
20260903232908 92 199 2.0 6.0 0.00 0.00 0.00 61 1010.7
20260903232403 92 178 5.0 6.0 0.00 0.00 0.00 61 1010.7
20260903231902 92 190 5.0 8.0 0.00 0.00 0.00 60 1010.6
20260903231357 93 271 2.0 5.0 0.00 0.00 0.00 60 1010.8
20260903230853 93 166 7.0 10.0 0.00 0.00 0.00 58 1010.8
20260903230348 93 169 4.0 6.0 0.00 0.00 0.00 59 1010.6
20260903225844 93 191 3.0 7.0 0.00 0.00 0.00 59 1010.5
20260903225340 94 230 3.0 5.0 0.00 0.00 0.00 59 1010.5
20260903224836 94 181 5.0 6.0 0.00 0.00 0.00 58 1010.7
20260903224332 94 163 4.0 9.0 0.00 0.00 0.00 59 1010.4
20260903223827 94 160 4.0 6.0 0.00 0.00 0.00 58 1010.4
20260903223326 94 166 4.0 8.0 0.00 0.00 0.00 56 1010.4
20260903222821 94 175 3.0 7.0 0.00 0.00 0.00 56 1010.5
20260903222320 95 134 6.0 10.0 0.00 0.00 0.00 55 1010.5
20260903221815 95 182 5.0 9.0 0.00 0.00 0.00 57 1010.6
20260903221314 95 179 7.0 8.0 0.00 0.00 0.00 57 1010.8
20260903220812 95 147 4.0 7.0 0.00 0.00 0.00 57 1010.9
20260903220301 95 161 6.0 8.0 0.00 0.00 0.00 56 1010.8
20260903215759 95 197 6.0 7.0 0.00 0.00 0.00 56 1011.0
20260903215256 96 217 5.0 9.0 0.00 0.00 0.00 55 1011.0
20260903214753 96 263 3.0 6.0 0.00 0.00 0.00 55 1010.8
20260903214244 96 207 8.0 10.0 0.00 0.00 0.00 54 1010.9
20260903213738 96 179 5.0 9.0 0.00 0.00 0.00 53 1011.0
20260903213234 96 162 7.0 15.0 0.00 0.00 0.00 53 1011.1
20260903212730 95 166 9.0 10.0 0.00 0.00 0.00 55 1011.2
20260903212226 96 120 6.0 9.0 0.00 0.00 0.00 54 1011.2
20260903211724 96 196 5.0 11.0 0.00 0.00 0.00 53 1011.2
20260903211222 96 225 8.0 10.0 0.00 0.00 0.00 55 1011.3
20260903210717 96 209 5.0 8.0 0.00 0.00 0.00 54 1011.1
20260903210213 96 256 5.0 7.0 0.00 0.00 0.00 54 1011.2
20260903205707 95 167 3.0 7.0 0.00 0.00 0.00 57 1011.3
20260903205206 96 153 5.0 6.0 0.00 0.00 0.00 56 1011.3
20260903204702 96 244 3.0 8.0 0.00 0.00 0.00 56 1011.4
20260903204158 96 150 4.0 7.0 0.00 0.00 0.00 55 1011.3
20260903203653 94 264 5.0 8.0 0.00 0.00 0.00 57 1011.6
20260903203148 95 198 6.0 8.0 0.00 0.00 0.00 56 1011.7
20260903202643 96 219 4.0 7.0 0.00 0.00 0.00 58 1011.5
20260903202138 95 148 5.0 8.0 0.00 0.00 0.00 57 1011.7
20260903201638 95 252 5.0 8.0 0.00 0.00 0.00 57 1011.7
20260903201137 96 194 4.0 9.0 0.00 0.00 0.00 54 1011.6
20260903200632 96 234 5.0 8.0 0.00 0.00 0.00 54 1011.8
20260903200127 96 253 3.0 11.0 0.00 0.00 0.00 55 1011.7
20260903195623 95 199 6.0 10.0 0.00 0.00 0.00 55 1012.1
20260903195119 95 130 6.0 9.0 0.00 0.00 0.00 55 1012.1
20260903194614 95 180 4.0 8.0 0.00 0.00 0.00 56 1012.1
20260903194114 96 216 9.0 10.0 0.00 0.00 0.00 55 1012.3
20260903193610 96 180 5.0 7.0 0.00 0.00 0.00 57 1012.2
20260903193105 95 174 5.0 7.0 0.00 0.00 0.00 56 1012.4
20260903192602 95 247 3.0 7.0 0.00 0.00 0.00 59 1012.3
20260903192057 94 199 3.0 9.0 0.00 0.00 0.00 58 1012.2
20260903191553 95 176 4.0 5.0 0.00 0.00 0.00 58 1012.2
20260903191048 94 281 1.0 3.0 0.00 0.00 0.00 59 1012.4
20260903190547 94 222 4.0 7.0 0.00 0.00 0.00 58 1012.4
20260903190047 94 177 4.0 6.0 0.00 0.00 0.00 57 1012.7
20260903185542 94 199 2.0 6.0 0.00 0.00 0.00 58 1012.4
20260903185038 94 255 3.0 6.0 0.00 0.00 0.00 58 1012.5
20260903184534 94 218 4.0 9.0 0.00 0.00 0.00 59 1012.5
20260903184029 92 208 6.0 8.0 0.00 0.00 0.00 59 1012.4
20260903183528 92 219 4.0 6.0 0.00 0.00 0.00 62 1012.7
20260903183024 92 221 5.0 6.0 0.00 0.00 0.00 61 1012.8
20260903182522 93 212 5.0 7.0 0.00 0.00 0.00 58 1012.9
20260903182019 95 210 9.0 13.0 0.00 0.00 0.00 57 1012.8
20260903181517 94 279 3.0 5.0 0.00 0.00 0.00 57 1012.7
20260903181017 95 259 5.0 7.0 0.00 0.00 0.00 57 1012.8
20260903180513 94 228 3.0 9.0 0.00 0.00 0.00 58 1012.7
20260903180012 94 230 4.0 9.0 0.00 0.00 0.00 58 1012.7
20260903175511 93 239 5.0 7.0 0.00 0.00 0.00 58 1012.8
20260903175010 93 216 7.0 9.0 0.00 0.00 0.00 57 1012.8
20260903174505 93 224 5.0 8.0 0.00 0.00 0.00 59 1012.8
20260903174000 93 222 5.0 9.0 0.00 0.00 0.00 59 1012.8
20260903173455 93 203 9.0 10.0 0.00 0.00 0.00 59 1012.7
20260903172950 94 178 5.0 10.0 0.00 0.00 0.00 55 1012.9
20260903172445 94 285 1.0 5.0 0.00 0.00 0.00 57 1012.9
20260903171941 93 213 7.0 11.0 0.00 0.00 0.00 57 1012.9
20260903171436 93 273 2.0 10.0 0.00 0.00 0.00 59 1013.1
20260903170936 93 233 5.0 8.0 0.00 0.00 0.00 59 1013.2
20260903170431 94 223 3.0 5.0 0.00 0.00 0.00 58 1012.9
20260903165930 93 213 5.0 8.0 0.00 0.00 0.00 58 1013.1
20260903165424 94 233 3.0 6.0 0.00 0.00 0.00 56 1013.1
20260903164918 93 188 3.0 7.0 0.00 0.00 0.00 56 1013.0
20260903164414 93 264 2.0 6.0 0.00 0.00 0.00 58 1013.0
20260903163913 93 220 5.0 7.0 0.00 0.00 0.00 57 1013.0
20260903163409 93 232 5.0 8.0 0.00 0.00 0.00 59 1012.9
20260903162905 92 291 3.0 7.0 0.00 0.00 0.00 59 1012.9
20260903162402 92 228 4.0 6.0 0.00 0.00 0.00 59 1013.0
20260903161857 91 231 5.0 7.0 0.00 0.00 0.00 60 1013.0
20260903161352 92 233 2.0 6.0 0.00 0.00 0.00 62 1013.3
20260903160848 92 216 6.0 7.0 0.00 0.00 0.00 60 1013.3
20260903160346 92 246 2.0 3.0 0.00 0.00 0.00 57 1013.1
20260903155845 90 227 2.0 6.0 0.00 0.00 0.00 62 1013.3
20260903155341 90 291 2.0 6.0 0.00 0.00 0.00 61 1013.4
20260903154837 91 241 6.0 7.0 0.00 0.00 0.00 61 1013.2
20260903154333 91 262 3.0 3.0 0.00 0.00 0.00 60 1013.3
20260903153833 90 271 1.0 5.0 0.00 0.00 0.00 62 1013.2
20260903153329 89 254 3.0 8.0 0.00 0.00 0.00 63 1013.2
20260903152825 89 256 3.0 6.0 0.00 0.00 0.00 65 1013.2
20260903152320 90 267 2.0 5.0 0.00 0.00 0.00 64 1013.2
20260903151815 89 262 2.0 5.0 0.00 0.00 0.00 65 1013.2
20260903151311 88 285 2.0 5.0 0.00 0.00 0.00 66 1013.3
20260903150811 89 270 3.0 5.0 0.00 0.00 0.00 68 1013.4
20260903150311 88 263 0.0 3.0 0.00 0.00 0.00 67 1013.2
20260903145806 88 246 3.0 5.0 0.00 0.00 0.00 68 1013.2
20260903145301 86 220 3.0 3.0 0.00 0.00 0.00 70 1013.4
20260903144800 86 243 3.0 5.0 0.00 0.00 0.00 70 1013.3
20260903144256 86 223 1.0 5.0 0.00 0.00 0.00 70 1013.3
20260903143752 85 258 2.0 3.0 0.00 0.00 0.00 71 1013.3
20260903143248 85 247 2.0 3.0 0.00 0.00 0.00 72 1013.4
20260903142743 84 274 1.0 3.0 0.00 0.00 0.00 74 1013.4
20260903142239 83 221 1.0 5.0 0.00 0.00 0.00 75 1013.4
20260903141735 83 196 4.0 5.0 0.00 0.00 0.00 73 1013.3
20260903141230 83 219 3.0 5.0 0.00 0.00 0.00 73 1013.3
20260903140725 83 246 2.0 6.0 0.00 0.00 0.00 75 1013.1
20260903140220 82 265 1.0 5.0 0.00 0.00 0.00 76 1013.4
20260903135716 82 273 3.0 3.0 0.00 0.00 0.00 75 1013.6
20260903135211 81 302 1.0 3.0 0.00 0.00 0.00 78 1013.5
20260903134710 81 283 2.0 3.0 0.00 0.00 0.00 77 1013.3
20260903134206 81 234 3.0 5.0 0.00 0.00 0.00 78 1013.4
20260903133704 80 237 3.0 3.0 0.00 0.00 0.00 78 1013.3
20260903133200 80 189 3.0 5.0 0.00 0.00 0.00 78 1013.4
20260903132700 81 273 1.0 1.0 0.00 0.00 0.00 77 1013.4
20260903132200 80 310 0.0 0.0 0.00 0.00 0.00 79 1013.4
20260903131655 80 316 0.0 1.0 0.00 0.00 0.00 81 1013.5
20260903131149 79 296 0.0 1.0 0.00 0.00 0.00 81 1013.6
20260903130644 80 306 0.0 0.0 0.00 0.00 0.00 80 1013.5
20260903130143 78 306 0.0 0.0 0.00 0.00 0.00 81 1013.2
20260903125642 78 307 0.0 0.0 0.00 0.00 0.00 83 1013.3